When you browse on this site, cookies collect data to enhance your experience and personalize the content and advertising you see.
Visit our Privacy Policy to learn more. By continuing to use the site, you agree to this use of cookies and data.
  • En España
  • Lista de países
  • Para 7 días
  • Temperatura del agua
  • Mapa Satelital
  • El tiempo en el mapa
  • Informadores
  • user-avatar
    Iniciar sesión

    Tiempo cada hora Santa Fe

    Hoy, 16 Diciembre, Domingo

    Tiempo Temperatura Precipitaciones Viento Presión Humedad
    00:00 +21°C° 0.2 mm 3 mps 759 mmHg 69%
    01:00 +21°C° 0.2 mm 3 mps 759 mmHg 70%
    02:00 +21°C° 0 mm 3 mps 758 mmHg 73%
    03:00 +21°C° 0.9 mm 3 mps 758 mmHg 79%
    04:00 +20°C° 0.9 mm 2 mps 758 mmHg 84%
    05:00 +20°C° 0.9 mm 2 mps 758 mmHg 90%
    06:00 +22°C° 0.5 mm 3 mps 758 mmHg 87%
    07:00 +25°C° 0.5 mm 4 mps 758 mmHg 84%
    08:00 +28°C° 0.5 mm 4 mps 758 mmHg 80%
    09:00 +29°C° 0.9 mm 4 mps 758 mmHg 75%
    10:00 +32°C° 0.9 mm 4 mps 758 mmHg 69%
    11:00 +34°C° 0.9 mm 4 mps 757 mmHg 64%
    12:00 +34°C° 1.7 mm 4 mps 757 mmHg 63%
    13:00 +34°C° 1.7 mm 4 mps 756 mmHg 62%
    14:00 +35°C° 1.7 mm 4 mps 756 mmHg 61%
    15:00 +35°C° 0.4 mm 4 mps 755 mmHg 63%
    16:00 +34°C° 0.4 mm 4 mps 755 mmHg 64%
    17:00 +34°C° 0.4 mm 4 mps 754 mmHg 65%
    18:00 +33°C° 0.4 mm 3 mps 754 mmHg 71%
    19:00 +30°C° 0.4 mm 3 mps 754 mmHg 77%
    20:00 +28°C° 0.4 mm 2 mps 754 mmHg 82%
    21:00 +28°C° 0.2 mm 2 mps 754 mmHg 84%
    22:00 +28°C° 0.2 mm 3 mps 754 mmHg 85%
    23:00 +27°C° 0.2 mm 3 mps 754 mmHg 87%

    Mañana, 17 Diciembre, Lunes

    Tiempo Temperatura Precipitaciones Viento Presión Humedad
    00:00 +27°C° 0.8 mm 2 mps 754 mmHg 88%
    01:00 +27°C° 0.8 mm 2 mps 754 mmHg 88%
    02:00 +26°C° 0.8 mm 2 mps 754 mmHg 89%
    03:00 +26°C° 1.1 mm 2 mps 754 mmHg 90%
    04:00 +26°C° 1.1 mm 2 mps 753 mmHg 91%
    05:00 +26°C° 1.1 mm 2 mps 753 mmHg 93%
    06:00 +27°C° 0 mm 2 mps 754 mmHg 87%
    07:00 +29°C° 0 mm 3 mps 754 mmHg 82%
    08:00 +30°C° 0 mm 3 mps 754 mmHg 77%
    09:00 +31°C° 0.7 mm 3 mps 754 mmHg 75%
    10:00 +33°C° 0.7 mm 3 mps 754 mmHg 72%
    11:00 +33°C° 0.7 mm 3 mps 754 mmHg 69%
    12:00 +33°C° 0.4 mm 3 mps 754 mmHg 72%
    13:00 +31°C° 0.4 mm 3 mps 754 mmHg 74%
    14:00 +31°C° 0.4 mm 2 mps 754 mmHg 77%
    15:00 +30°C° 1.1 mm 3 mps 753 mmHg 79%
    16:00 +29°C° 1.1 mm 4 mps 753 mmHg 82%
    17:00 +29°C° 1.1 mm 5 mps 752 mmHg 85%
    18:00 +28°C° 10.9 mm 5 mps 753 mmHg 89%
    19:00 +27°C° 10.9 mm 5 mps 753 mmHg 92%
    20:00 +26°C° 10.9 mm 5 mps 754 mmHg 96%
    21:00 +26°C° 6.3 mm 5 mps 754 mmHg 96%
    22:00 +26°C° 6.3 mm 4 mps 755 mmHg 95%
    23:00 +25°C° 6.3 mm 4 mps 756 mmHg 95%

    Pasado mañana, 18 Diciembre, Martes

    Tiempo Temperatura Precipitaciones Viento Presión Humedad
    00:00 +25°C° 1.4 mm 4 mps 756 mmHg 96%
    01:00 +25°C° 1.4 mm 3 mps 756 mmHg 96%
    02:00 +24°C° 1.4 mm 3 mps 756 mmHg 96%
    03:00 +23°C° 0.4 mm 4 mps 756 mmHg 96%
    04:00 +22°C° 0.4 mm 4 mps 757 mmHg 96%
    05:00 +22°C° 0.4 mm 4 mps 757 mmHg 95%
    06:00 +22°C° 0.1 mm 5 mps 758 mmHg 95%
    07:00 +21°C° 0.1 mm 5 mps 758 mmHg 94%
    08:00 +21°C° 0.1 mm 5 mps 759 mmHg 93%
    09:00 +21°C° 0 mm 5 mps 759 mmHg 91%
    10:00 +22°C° 0 mm 5 mps 759 mmHg 89%
    11:00 +22°C° 0 mm 4 mps 760 mmHg 87%
    12:00 +22°C° 0 mm 4 mps 760 mmHg 85%
    13:00 +22°C° 0 mm 4 mps 759 mmHg 84%
    14:00 +24°C° 0 mm 3 mps 759 mmHg 82%
    15:00 +24°C° 0 mm 3 mps 759 mmHg 81%
    16:00 +25°C° 0 mm 3 mps 758 mmHg 79%
    17:00 +26°C° 0 mm 3 mps 758 mmHg 78%
    18:00 +25°C° 0 mm 2 mps 758 mmHg 82%
    19:00 +24°C° 0 mm 2 mps 758 mmHg 85%
    20:00 +23°C° 0 mm 2 mps 759 mmHg 89%
    21:00 +23°C° 0 mm 2 mps 759 mmHg 90%
    22:00 +21°C° 0 mm 2 mps 759 mmHg 92%
    23:00 +21°C° 0 mm 2 mps 759 mmHg 93%

    19 Diciembre, Miércoles

    Tiempo Temperatura Precipitaciones Viento Presión Humedad
    00:00 +20°C° 0 mm 2 mps 758 mmHg 94%
    01:00 +20°C° 0 mm 2 mps 758 mmHg 95%
    02:00 +20°C° 0 mm 2 mps 757 mmHg 97%
    03:00 +19°C° 0 mm 2 mps 757 mmHg 97%
    04:00 +19°C° 0 mm 2 mps 757 mmHg 97%
    05:00 +20°C° 0 mm 1 mps 757 mmHg 98%
    06:00 +21°C° 0 mm 1 mps 757 mmHg 93%
    07:00 +23°C° 0 mm 1 mps 758 mmHg 89%
    08:00 +24°C° 0 mm 1 mps 758 mmHg 85%
    09:00 +25°C° 0 mm 1 mps 757 mmHg 81%
    10:00 +26°C° 0 mm 1 mps 757 mmHg 77%
    11:00 +27°C° 0 mm 2 mps 757 mmHg 72%
    12:00 +28°C° 0 mm 2 mps 756 mmHg 70%
    13:00 +29°C° 0 mm 2 mps 755 mmHg 68%
    14:00 +30°C° 0 mm 2 mps 754 mmHg 65%
    15:00 +29°C° 0 mm 2 mps 754 mmHg 69%
    16:00 +29°C° 0 mm 2 mps 753 mmHg 73%
    17:00 +28°C° 0 mm 1 mps 753 mmHg 76%
    18:00 +27°C° 0 mm 2 mps 753 mmHg 80%
    19:00 +26°C° 0 mm 2 mps 753 mmHg 84%
    20:00 +25°C° 0 mm 2 mps 753 mmHg 88%
    21:00 +25°C° 0 mm 2 mps 753 mmHg 90%
    22:00 +24°C° 0 mm 2 mps 753 mmHg 92%
    23:00 +24°C° 0 mm 2 mps 752 mmHg 95%

    20 Diciembre, Jueves

    Tiempo Temperatura Precipitaciones Viento Presión Humedad
    00:00 +24°C° 0.2 mm 2 mps 752 mmHg 95%
    01:00 +24°C° 0.2 mm 1 mps 752 mmHg 96%
    02:00 +23°C° 0.2 mm 1 mps 752 mmHg 96%
    03:00 +23°C° 4.4 mm 1 mps 752 mmHg 97%
    04:00 +23°C° 4.4 mm 1 mps 752 mmHg 97%
    05:00 +23°C° 4.4 mm 2 mps 752 mmHg 98%
    06:00 +24°C° 1.6 mm 2 mps 752 mmHg 95%
    07:00 +25°C° 1.6 mm 2 mps 753 mmHg 93%
    08:00 +26°C° 1.6 mm 2 mps 753 mmHg 91%
    09:00 +27°C° 0.1 mm 2 mps 753 mmHg 86%
    10:00 +28°C° 0.1 mm 2 mps 753 mmHg 82%
    11:00 +29°C° 0.1 mm 2 mps 753 mmHg 77%
    12:00 +30°C° 1.3 mm 2 mps 753 mmHg 75%
    13:00 +30°C° 1.3 mm 2 mps 753 mmHg 74%
    14:00 +31°C° 1.3 mm 2 mps 752 mmHg 72%
    15:00 +31°C° 0.4 mm 2 mps 752 mmHg 71%
    16:00 +31°C° 0.4 mm 2 mps 752 mmHg 69%
    17:00 +31°C° 0.4 mm 3 mps 752 mmHg 68%
    18:00 +30°C° 0 mm 2 mps 752 mmHg 72%
    19:00 +28°C° 0 mm 1 mps 752 mmHg 77%
    20:00 +26°C° 0 mm 1 mps 753 mmHg 82%
    21:00 +26°C° 0 mm 1 mps 753 mmHg 84%
    22:00 +25°C° 0 mm 1 mps 753 mmHg 85%
    23:00 +25°C° 0 mm 1 mps 753 mmHg 87%

    21 Diciembre, Viernes

    Tiempo Temperatura Precipitaciones Viento Presión Humedad
    00:00 +24°C° 0 mm 1 mps 753 mmHg 87%
    01:00 +24°C° 0 mm 2 mps 753 mmHg 86%
    02:00 +24°C° 0 mm 2 mps 753 mmHg 86%
    03:00 +23°C° 0 mm 2 mps 753 mmHg 84%
    04:00 +23°C° 0 mm 2 mps 754 mmHg 83%
    05:00 +21°C° 0 mm 2 mps 754 mmHg 81%
    06:00 +24°C° 0 mm 2 mps 754 mmHg 75%
    07:00 +25°C° 0 mm 2 mps 755 mmHg 69%
    08:00 +27°C° 0 mm 2 mps 755 mmHg 64%
    09:00 +29°C° 0 mm 2 mps 755 mmHg 56%
    10:00 +30°C° 0 mm 2 mps 755 mmHg 48%
    11:00 +32°C° 0 mm 2 mps 755 mmHg 40%
    12:00 +32°C° 0 mm 2 mps 754 mmHg 38%
    13:00 +34°C° 0 mm 2 mps 754 mmHg 36%
    14:00 +34°C° 0 mm 2 mps 753 mmHg 34%
    15:00 +34°C° 0 mm 2 mps 753 mmHg 38%
    16:00 +32°C° 0 mm 2 mps 753 mmHg 41%
    17:00 +32°C° 0 mm 2 mps 753 mmHg 45%
    18:00 +30°C° 0 mm 2 mps 753 mmHg 49%
    19:00 +28°C° 0 mm 2 mps 753 mmHg 53%
    20:00 +25°C° 0 mm 2 mps 754 mmHg 57%
    21:00 +25°C° 0 mm 2 mps 754 mmHg 58%
    22:00 +24°C° 0 mm 2 mps 754 mmHg 59%
    23:00 +23°C° 0 mm 2 mps 755 mmHg 60%
    Mostrar más